When you browse on this site, cookies collect data to enhance your experience and personalize the content and advertising you see.
Visit our Privacy Policy to learn more. By continuing to use the site, you agree to this use of cookies and data.
  • In Romania
  • List of Countries
  • For 7 days
  • Water Temperature
  • Satellite Maps
  • Weather Map
  • Weather Widgets
  • user-avatar
    Login

    Hourly Weather Saburovskiy

    Today, 24 March, Sunday

    Time Temperature Precipitation Wind Pressure Humidity
    00:00 -1°C° 0.1 mm 3 mps 745 mmHg 95%
    01:00 -2°C° 0 mm 3 mps 745 mmHg 95%
    02:00 -4°C° 0 mm 3 mps 745 mmHg 95%
    03:00 -6°C° 0 mm 3 mps 745 mmHg 93%
    04:00 -7°C° 0 mm 3 mps 745 mmHg 92%
    05:00 -8°C° 0 mm 3 mps 745 mmHg 92%
    06:00 -9°C° 0 mm 3 mps 746 mmHg 91%
    07:00 -7°C° 0 mm 3 mps 745 mmHg 90%
    08:00 -6°C° 0 mm 3 mps 745 mmHg 89%
    09:00 -5°C° 0 mm 3 mps 745 mmHg 89%
    10:00 -3°C° 0 mm 2 mps 745 mmHg 92%
    11:00 -2°C° 0 mm 2 mps 745 mmHg 95%
    12:00 +1°C° 0 mm 1 mps 745 mmHg 99%
    13:00 +1°C° 0 mm 1 mps 744 mmHg 99%
    14:00 +1°C° 0 mm 1 mps 744 mmHg 99%
    15:00 +1°C° 0 mm 1 mps 743 mmHg 99%
    16:00 +1°C° 0 mm 1 mps 743 mmHg 99%
    17:00 -1°C° 0 mm 0 mps 743 mmHg 98%
    18:00 -1°C° 0 mm 0 mps 742 mmHg 98%
    19:00 0°C° 0 mm 1 mps 742 mmHg 97%
    20:00 0°C° 0 mm 1 mps 742 mmHg 96%
    21:00 -2°C° 0 mm 2 mps 741 mmHg 96%
    22:00 -2°C° 0 mm 2 mps 741 mmHg 95%
    23:00 -2°C° 0 mm 2 mps 740 mmHg 94%

    Tomorrow, 25 March, Monday

    Time Temperature Precipitation Wind Pressure Humidity
    00:00 -2°C° 0 mm 3 mps 740 mmHg 93%
    01:00 -2°C° 0.2 mm 3 mps 740 mmHg 94%
    02:00 -3°C° 0.2 mm 4 mps 739 mmHg 95%
    03:00 -3°C° 0.2 mm 4 mps 739 mmHg 95%
    04:00 -3°C° 0 mm 4 mps 739 mmHg 95%
    05:00 -4°C° 0 mm 5 mps 739 mmHg 95%
    06:00 -4°C° 0 mm 5 mps 739 mmHg 95%
    07:00 -4°C° 0 mm 5 mps 739 mmHg 93%
    08:00 -4°C° 0 mm 5 mps 739 mmHg 92%
    09:00 -4°C° 0 mm 6 mps 739 mmHg 90%
    10:00 -3°C° 0 mm 6 mps 740 mmHg 92%
    11:00 -2°C° 0 mm 5 mps 740 mmHg 95%
    12:00 -2°C° 0 mm 5 mps 740 mmHg 97%
    13:00 -1°C° 0 mm 5 mps 741 mmHg 97%
    14:00 -1°C° 0 mm 5 mps 741 mmHg 97%
    15:00 -1°C° 0 mm 4 mps 741 mmHg 97%
    16:00 -2°C° 0 mm 4 mps 742 mmHg 94%
    17:00 -1°C° 0 mm 3 mps 742 mmHg 91%
    18:00 -2°C° 0 mm 3 mps 742 mmHg 89%
    19:00 -4°C° 0 mm 3 mps 743 mmHg 89%
    20:00 -4°C° 0 mm 3 mps 743 mmHg 89%
    21:00 -4°C° 0 mm 2 mps 744 mmHg 89%
    22:00 -4°C° 0 mm 2 mps 744 mmHg 88%
    23:00 -4°C° 0 mm 2 mps 744 mmHg 86%

    Day after tomorrow, 26 March, Tuesday

    Time Temperature Precipitation Wind Pressure Humidity
    00:00 -4°C° 0 mm 2 mps 744 mmHg 85%
    01:00 -4°C° 0 mm 2 mps 744 mmHg 85%
    02:00 -4°C° 0 mm 2 mps 744 mmHg 85%
    03:00 -4°C° 0 mm 2 mps 744 mmHg 85%
    04:00 -4°C° 0 mm 2 mps 744 mmHg 85%
    05:00 -5°C° 0 mm 3 mps 744 mmHg 86%
    06:00 -5°C° 0 mm 3 mps 744 mmHg 87%
    07:00 -4°C° 0 mm 3 mps 743 mmHg 87%
    08:00 -3°C° 0 mm 4 mps 743 mmHg 87%
    09:00 -2°C° 0 mm 4 mps 743 mmHg 87%
    10:00 -1°C° 0.3 mm 5 mps 742 mmHg 91%
    11:00 -1°C° 0.3 mm 5 mps 742 mmHg 95%
    12:00 -1°C° 0.3 mm 5 mps 741 mmHg 99%
    13:00 -1°C° 1 mm 5 mps 741 mmHg 99%
    14:00 0°C° 1 mm 5 mps 740 mmHg 99%
    15:00 0°C° 1 mm 5 mps 740 mmHg 99%
    16:00 0°C° 0 mm 4 mps 740 mmHg 99%
    17:00 +1°C° 0 mm 3 mps 740 mmHg 98%
    18:00 0°C° 0 mm 3 mps 739 mmHg 98%
    19:00 0°C° 0 mm 3 mps 740 mmHg 97%
    20:00 +1°C° 0 mm 2 mps 740 mmHg 95%
    21:00 +1°C° 0 mm 2 mps 740 mmHg 94%
    22:00 0°C° 0.1 mm 3 mps 740 mmHg 94%
    23:00 0°C° 0.1 mm 3 mps 739 mmHg 93%

    27 March, Wednesday

    Time Temperature Precipitation Wind Pressure Humidity
    00:00 0°C° 0.1 mm 3 mps 739 mmHg 93%
    01:00 -1°C° 0 mm 3 mps 739 mmHg 92%
    02:00 -2°C° 0 mm 3 mps 739 mmHg 91%
    03:00 -4°C° 0 mm 3 mps 739 mmHg 90%
    04:00 -4°C° 0 mm 3 mps 740 mmHg 91%
    05:00 -4°C° 0 mm 3 mps 740 mmHg 92%
    06:00 -4°C° 0 mm 3 mps 740 mmHg 93%
    07:00 -4°C° 0 mm 3 mps 741 mmHg 92%
    08:00 -2°C° 0 mm 3 mps 741 mmHg 90%
    09:00 -2°C° 0 mm 2 mps 741 mmHg 89%
    10:00 -1°C° 0 mm 2 mps 742 mmHg 91%
    11:00 -1°C° 0 mm 2 mps 742 mmHg 94%
    12:00 +1°C° 0 mm 2 mps 742 mmHg 96%
    13:00 +2°C° 0 mm 1 mps 742 mmHg 96%
    14:00 +2°C° 0 mm 1 mps 742 mmHg 95%
    15:00 +2°C° 0 mm 1 mps 742 mmHg 95%
    16:00 +1°C° 0 mm 1 mps 743 mmHg 92%
    17:00 +1°C° 0 mm 1 mps 743 mmHg 88%
    18:00 0°C° 0 mm 1 mps 743 mmHg 85%
    19:00 -3°C° 0 mm 2 mps 744 mmHg 84%
    20:00 -4°C° 0 mm 3 mps 744 mmHg 84%
    21:00 -5°C° 0 mm 3 mps 744 mmHg 83%
    22:00 -5°C° 0 mm 3 mps 745 mmHg 83%
    23:00 -6°C° 0 mm 3 mps 745 mmHg 83%

    28 March, Thursday

    Time Temperature Precipitation Wind Pressure Humidity
    00:00 -6°C° 0 mm 3 mps 745 mmHg 83%
    01:00 -7°C° 0 mm 4 mps 745 mmHg 85%
    02:00 -7°C° 0 mm 4 mps 745 mmHg 87%
    03:00 -7°C° 0 mm 4 mps 746 mmHg 89%
    04:00 -6°C° 0 mm 5 mps 746 mmHg 89%
    05:00 -5°C° 0 mm 5 mps 747 mmHg 89%
    06:00 -4°C° 0 mm 5 mps 747 mmHg 89%
    07:00 -4°C° 0 mm 6 mps 747 mmHg 88%
    08:00 -4°C° 0 mm 6 mps 748 mmHg 87%
    09:00 -4°C° 0 mm 6 mps 748 mmHg 86%
    10:00 -4°C° 0 mm 6 mps 749 mmHg 84%
    11:00 -4°C° 0 mm 7 mps 749 mmHg 82%
    12:00 -3°C° 0 mm 7 mps 750 mmHg 81%
    13:00 -3°C° 0 mm 6 mps 750 mmHg 77%
    14:00 -3°C° 0 mm 6 mps 750 mmHg 74%
    15:00 -1°C° 0 mm 5 mps 750 mmHg 71%
    16:00 -2°C° 0 mm 5 mps 750 mmHg 72%
    17:00 -3°C° 0 mm 4 mps 750 mmHg 73%
    18:00 -3°C° 0 mm 4 mps 750 mmHg 74%
    19:00 -4°C° 0 mm 4 mps 750 mmHg 76%
    20:00 -4°C° 0 mm 4 mps 750 mmHg 78%
    21:00 -4°C° 0 mm 4 mps 750 mmHg 80%
    22:00 -4°C° 0 mm 4 mps 750 mmHg 81%
    23:00 -5°C° 0 mm 5 mps 750 mmHg 82%

    29 March, Friday

    Time Temperature Precipitation Wind Pressure Humidity
    00:00 -5°C° 0 mm 5 mps 749 mmHg 82%
    01:00 -5°C° 0 mm 5 mps 749 mmHg 83%
    02:00 -5°C° 0 mm 5 mps 748 mmHg 83%
    03:00 -5°C° 0 mm 5 mps 748 mmHg 84%
    04:00 -5°C° 0 mm 5 mps 747 mmHg 83%
    05:00 -5°C° 0 mm 5 mps 747 mmHg 83%
    06:00 -5°C° 0 mm 6 mps 746 mmHg 83%
    07:00 -4°C° 0 mm 6 mps 745 mmHg 83%
    08:00 -3°C° 0 mm 7 mps 745 mmHg 82%
    09:00 -2°C° 0 mm 8 mps 744 mmHg 82%
    10:00 -2°C° 0.4 mm 7 mps 743 mmHg 84%
    11:00 -1°C° 0.4 mm 7 mps 742 mmHg 86%
    12:00 -1°C° 0.4 mm 7 mps 741 mmHg 88%
    13:00 -1°C° 0.6 mm 6 mps 741 mmHg 90%
    14:00 -1°C° 0.6 mm 6 mps 741 mmHg 93%
    15:00 -1°C° 0.6 mm 6 mps 740 mmHg 95%
    16:00 -1°C° 0.1 mm 6 mps 740 mmHg 93%
    17:00 -1°C° 0.1 mm 6 mps 740 mmHg 91%
    18:00 0°C° 0.1 mm 5 mps 740 mmHg 89%
    19:00 -1°C° 0.1 mm 5 mps 741 mmHg 90%
    20:00 -1°C° 0.1 mm 5 mps 741 mmHg 90%
    21:00 -1°C° 0.1 mm 5 mps 742 mmHg 91%
    22:00 -1°C° 0 mm 5 mps 742 mmHg 91%
    23:00 -2°C° 0 mm 6 mps 743 mmHg 91%
    Show more